This is the latest recevied weather packets stored in our database for station/object TA2EE-10. If no packets are shown the sender has not sent any weather packets the latest 10 day(s).
| Time | Temp. | Humidity | Pressure | Rain* | Wind** | Luminosity | Snow |
|---|---|---|---|---|---|---|---|
| 1787430332 | 33.89° C | 24% | 911 hPa | - | - | 0 W/m² | - |
| 1787429947 | 33.89° C | 24% | 911 hPa | - | - | 0 W/m² | - |
| 1787427825 | 33.33° C | 24% | 911 hPa | - | - | 0 W/m² | - |
| 1787425703 | 33.89° C | 26% | 910 hPa | - | - | 0 W/m² | - |
| 1787423581 | 33.33° C | 28% | 910 hPa | - | - | 0 W/m² | - |
| 1787421458 | 35° C | 29% | 910 hPa | - | - | 0 W/m² | - |
| 1787419374 | 33.89° C | 24% | 909 hPa | - | - | 0 W/m² | - |
| 1787418888 | 33.89° C | 23% | 909 hPa | - | - | 0 W/m² | - |
| 1787416764 | 34.44° C | 27% | 909 hPa | - | - | 0 W/m² | - |
| 1787414641 | 35.56° C | 26% | 909 hPa | - | - | 0 W/m² | - |
| 1787412518 | 36.67° C | 22% | 909 hPa | - | - | 0 W/m² | - |
| 1787410396 | 37.22° C | 25% | 909 hPa | - | - | 0 W/m² | - |
| 1787408274 | 38.33° C | 22% | 909 hPa | - | - | 0 W/m² | - |
| 1787406150 | 38.89° C | 21% | 909 hPa | - | - | 0 W/m² | - |
| 1787404027 | 38.89° C | 19% | 909 hPa | - | - | 0 W/m² | - |
| 1787401904 | 40° C | 15% | 909 hPa | - | - | 0 W/m² | - |
| 1787399782 | 40.56° C | 17% | 909 hPa | - | - | 0 W/m² | - |
| 1787397660 | 40.56° C | 17% | 910 hPa | - | - | 0 W/m² | - |
| 1787395538 | 40.56° C | 18% | 910 hPa | - | - | 0 W/m² | - |
| 1787393416 | 40° C | 18% | 910 hPa | - | - | 0 W/m² | - |
| 1787391294 | 38.89° C | 18% | 910 hPa | - | - | 0 W/m² | - |
| 1787391227 | 38.33° C | 18% | 910 hPa | - | - | 0 W/m² | - |
| 1787389105 | 37.22° C | 19% | 911 hPa | - | - | 0 W/m² | - |
| 1787386982 | 35.56° C | 21% | 911 hPa | - | - | 0 W/m² | - |
| 1787384860 | 36.11° C | 21% | 911 hPa | - | - | 0 W/m² | - |
* Rain since midnight (hover to see other rain measurements)
** Current wind speed in m/s (hover to see current wind gust speed)